Alpena, MI

5:15 PM EST on February 07, 2016 (GMT -0500)
Alpena County Regional

Weather History for KAPN - January, 2012

Change the Weather History Date:

Saturday, January 7, 2012

  Actual Average Record
Temperature  
Mean Temperature 30 °F 20 °F  
Max Temperature 34 °F 27 °F 48 °F (1949)
Min Temperature 25 °F 13 °F -13 °F (1968)
Degree Days  
Heating Degree Days 35 45  
Month to date heating degree days 265 313  
Since 1 July heating degree days 2897 3374  
Moisture  
Dew Point 24 °F    
Average Humidity 78    
Maximum Humidity 92    
Minimum Humidity 63    
Precipitation  
Precipitation 0.01 in 0.05 in 1.41 in (2008)
Month to date precipitation 0.25 0.40  
Year to date precipitation 0.25 0.40  
Snow  
Snow T in 0.70 in 8.20 in (1994)
Month to date snowfall 2.7 4.8  
Since 1 July snowfall 7.9 32.1  
Snow Depth 1.00 in    
Sea Level Pressure  
Sea Level Pressure 29.86 in    
Wind  
Wind Speed 8 mph (WNW)    
Max Wind Speed 18 mph    
Max Gust Speed 26 mph    
Visibility 9 miles    
Events Snow    
T = Trace of Precipitation, MM = Missing Value Source: NWS Daily Summary

Daily Weather History Graph

Daily Weather History Graph

Search for Another Location

Airport or City:

Trip Planner

Search our weather history database for the weather conditions in past years. The results will help you decide how hot, cold, wet, or windy it might be!

Date:

Astronomy

Jan. 07, 2012 Rise Set
Actual Time 8:12 AM EST 5:08 PM EST
Civil Twilight 7:38 AM EST 5:42 PM EST
Nautical Twilight 7:02 AM EST 6:18 PM EST
Astronomical Twilight 6:26 AM EST 6:54 PM EST
Moon 3:50 PM EST 6:44 AM EST
Length of Visible Light 10h 03m
Length of Day
8h 56m
Waxing Gibbous, 97% of the Moon is Illuminated
Jan 7
Waxing Gibbous
Jan 9
Full
Jan 16
Last Quarter
Jan 23
New
Jan 30
First Quarter

Hourly Weather History & Observations

Time (EST) Temp. Windchill Dew Point Humidity Pressure Visibility Wind Dir Wind Speed Gust Speed Precip Events Conditions
12:54 AM 30.9 °F 26.2 °F 27.0 °F 85% 29.64 in 10.0 mi West 4.6 mph - N/A   Clear
1:54 AM 32.0 °F 27.5 °F 27.0 °F 82% 29.64 in 10.0 mi West 4.6 mph - N/A   Clear
2:54 AM 30.9 °F 27.5 °F 27.0 °F 85% 29.65 in 10.0 mi WSW 3.5 mph - N/A   Overcast
3:54 AM 30.9 °F 27.5 °F 27.0 °F 85% 29.65 in 10.0 mi WSW 3.5 mph - N/A   Clear
4:54 AM 28.9 °F 25.2 °F 26.1 °F 89% 29.66 in 10.0 mi West 3.5 mph - N/A   Clear
5:54 AM 30.0 °F 25.2 °F 25.0 °F 82% 29.67 in 10.0 mi WSW 4.6 mph - N/A   Clear
6:54 AM 30.9 °F 27.5 °F 26.1 °F 82% 29.69 in 10.0 mi WSW 3.5 mph - N/A   Mostly Cloudy
7:54 AM 33.1 °F 24.9 °F 28.0 °F 82% 29.72 in 6.0 mi West 10.4 mph 16.1 mph 0.00 in Snow Light Snow
8:00 AM 33.8 °F 25.8 °F 28.4 °F 81% 29.70 in 2.0 mi West 10.4 mph 17.3 mph 0.00 in Snow Light Snow
8:16 AM 33.8 °F 27.7 °F 30.2 °F 87% 29.70 in 9.0 mi West 6.9 mph - 0.01 in Snow Light Snow
8:29 AM 33.8 °F 27.0 °F 30.2 °F 87% 29.71 in 10.0 mi WNW 8.1 mph - 0.01 in   Overcast
8:37 AM 33.8 °F 27.7 °F 30.2 °F 87% 29.72 in 10.0 mi WNW 6.9 mph - 0.01 in   Overcast
8:54 AM 33.1 °F 28.7 °F 30.9 °F 92% 29.76 in 4.0 mi Variable 4.6 mph - 0.01 in Snow Light Snow
9:00 AM - - - N/A% - - North - - N/A   Unknown
9:06 AM 33.8 °F 27.7 °F 30.2 °F 87% 29.74 in 10.0 mi Variable 6.9 mph - 0.00 in   Overcast
9:41 AM 33.8 °F 26.4 °F 28.4 °F 81% 29.76 in 9.0 mi NW 9.2 mph 16.1 mph 0.00 in   Overcast
9:54 AM 33.1 °F 25.5 °F 30.0 °F 89% 29.81 in 3.0 mi NW 9.2 mph - 0.00 in Snow Light Snow
10:10 AM 33.8 °F 25.8 °F 28.4 °F 81% 29.79 in 10.0 mi NW 10.4 mph 20.7 mph 0.00 in   Mostly Cloudy
10:27 AM 33.8 °F 25.3 °F 26.6 °F 75% 29.80 in 10.0 mi WNW 11.5 mph 20.7 mph 0.00 in   Mostly Cloudy
10:47 AM 33.8 °F 23.9 °F 24.8 °F 70% 29.81 in 10.0 mi NW 15.0 mph 19.6 mph 0.00 in   Scattered Clouds
10:54 AM 33.1 °F 23.4 °F 25.0 °F 72% 29.85 in 10.0 mi NW 13.8 mph 20.7 mph 0.00 in   Scattered Clouds
11:11 AM 33.8 °F 24.8 °F 24.8 °F 70% 29.82 in 10.0 mi WNW 12.7 mph 24.2 mph N/A   Mostly Cloudy
11:54 AM 32.0 °F 24.2 °F 24.1 °F 73% 29.87 in 10.0 mi WNW 9.2 mph 18.4 mph N/A   Overcast
12:54 PM 30.9 °F 21.2 °F 21.9 °F 69% 29.89 in 10.0 mi NW 12.7 mph 20.7 mph N/A   Overcast
1:54 PM 30.9 °F 20.2 °F 21.0 °F 67% 29.91 in 10.0 mi WNW 15.0 mph 23.0 mph N/A   Overcast
2:54 PM 30.9 °F 21.2 °F 21.9 °F 69% 29.95 in 10.0 mi West 12.7 mph 23.0 mph N/A   Overcast
3:21 PM 30.2 °F 21.3 °F 19.4 °F 64% 29.94 in 10.0 mi WNW 10.4 mph 20.7 mph N/A   Mostly Cloudy
3:54 PM 30.0 °F 18.7 °F 19.0 °F 64% 29.98 in 10.0 mi NW 16.1 mph 25.3 mph N/A   Overcast
4:54 PM 30.0 °F 21.7 °F 19.0 °F 64% 30.02 in 10.0 mi WNW 9.2 mph 20.7 mph N/A   Overcast
5:54 PM 28.9 °F 19.8 °F 19.0 °F 67% 30.06 in 10.0 mi WNW 10.4 mph 18.4 mph N/A   Overcast
6:54 PM 28.0 °F 19.3 °F 19.9 °F 72% 30.08 in 8.0 mi NW 9.2 mph - 0.00 in Snow Light Snow
7:54 PM 28.0 °F 20.0 °F 19.9 °F 72% 30.10 in 10.0 mi NW 8.1 mph - 0.00 in   Overcast
8:25 PM 26.6 °F 16.8 °F 17.6 °F 69% 30.09 in 10.0 mi NW 10.4 mph 18.4 mph N/A   Mostly Cloudy
8:54 PM 27.0 °F 18.7 °F 17.1 °F 66% 30.13 in 10.0 mi WNW 8.1 mph 17.3 mph N/A   Scattered Clouds
9:54 PM 26.1 °F 18.4 °F 17.1 °F 69% 30.14 in 10.0 mi WNW 6.9 mph - N/A   Clear
10:54 PM 25.0 °F 20.7 °F 17.1 °F 72% 30.17 in 10.0 mi West 3.5 mph - N/A   Overcast
11:20 PM 24.8 °F 19.1 °F 17.6 °F 74% 30.15 in 10.0 mi WNW 4.6 mph - N/A   Overcast
11:54 PM 26.1 °F 20.5 °F 18.0 °F 71% 30.19 in 10.0 mi NW 4.6 mph - N/A   Overcast